ICT,Max TemperatureF,Mean TemperatureF,Min TemperatureF,Max Dew PointF,MeanDew PointF,Min DewpointF,Max Humidity, Mean Humidity, Min Humidity, Max Sea Level PressureIn, Mean Sea Level PressureIn, Min Sea Level PressureIn, Max VisibilityMiles, Mean VisibilityMiles, Min VisibilityMiles, Max Wind SpeedMPH, Mean Wind SpeedMPH, Max Gust SpeedMPH,PrecipitationIn, CloudCover, Events, WindDirDegrees
2012-11-1,89,84,78,72,66,61,74,58,40,29.92,29.85,29.80,6,5,4,9,5,,0.00,6,,2
2012-11-2,91,84,77,72,67,59,78,58,34,29.89,29.83,29.77,4,3,1,12,3,,0.00,5,Rain,36
2012-11-3,93,86,78,73,69,63,79,60,38,29.89,29.83,29.77,6,3,1,9,2,,0.00,6,Thunderstorm,333
2012-11-4,91,84,78,73,71,66,78,65,43,29.89,29.83,29.77,3,2,1,7,3,,0.00,6,Thunderstorm,349
2012-11-5,91,84,77,73,71,66,79,65,46,29.89,29.83,29.74,2,1,1,8,2,,0.00,6,Rain-Thunderstorm,263
2012-11-6,91,84,78,73,71,68,79,66,49,29.92,29.85,29.77,4,3,2,7,1,,0.00,6,Rain-Thunderstorm,268
2012-11-7,91,84,78,73,71,66,79,66,46,29.89,29.81,29.74,6,4,2,12,2,,0.00,6,Thunderstorm,305
2012-11-8,91,84,78,73,71,66,79,64,46,29.86,29.80,29.74,6,5,3,7,3,,0.00,5,,228
2012-11-9,91,84,78,73,71,68,79,65,49,29.89,29.81,29.74,6,6,5,9,3,,0.00,5,Rain,285
2012-11-10,91,84,78,73,71,68,79,63,46,29.89,29.82,29.74,6,6,4,8,2,,0.00,5,,279
2012-11-11,93,86,78,73,71,66,83,69,43,29.89,29.81,29.74,6,4,1,18,2,,0.00,6,Rain-Thunderstorm,10
2012-11-12,87,82,77,73,71,68,79,70,52,29.92,29.85,29.80,6,5,1,9,2,,0.00,6,Rain-Thunderstorm,13
2012-11-13,89,84,78,73,71,68,83,67,49,29.92,29.85,29.77,4,4,3,7,2,,0.00,6,,36
2012-11-14,91,84,77,73,70,66,83,70,49,29.86,29.81,29.77,6,5,4,9,3,,0.00,6,Rain-Thunderstorm,18
2012-11-15,93,83,73,75,71,66,89,70,43,29.86,29.82,29.77,6,4,4,7,2,,0.00,6,,22
2012-11-16,84,80,75,73,73,70,89,79,66,29.89,29.84,29.80,4,3,3,9,3,,0.00,6,,359
2012-11-17,86,80,73,77,73,72,100,81,66,29.86,29.82,29.74,6,4,3,6,3,,0.00,6,Rain-Thunderstorm,21
2012-11-18,86,80,73,75,72,70,94,85,66,29.89,29.83,29.80,6,5,4,12,2,,0.00,6,Rain-Thunderstorm,89
2012-11-19,87,80,73,75,73,70,94,85,62,29.89,29.85,29.80,6,5,4,12,3,,0.00,6,Rain-Thunderstorm,26
2012-11-20,86,80,75,75,74,73,94,84,70,29.92,29.86,29.80,6,5,4,7,2,,0.00,6,Rain-Thunderstorm,333
2012-11-21,87,82,77,75,74,72,89,80,66,29.92,29.86,29.80,6,5,4,7,2,,0.00,6,,276
2012-11-22,89,83,77,75,74,72,89,77,55,29.89,29.82,29.74,6,5,4,7,1,,0.00,6,Thunderstorm,237
2012-11-23,89,82,75,77,75,72,94,81,62,29.89,29.82,29.74,6,5,1,9,1,,0.00,5,Rain-Thunderstorm,303
2012-11-24,89,82,75,77,75,73,94,79,62,29.89,29.83,29.74,6,5,4,9,1,,0.00,6,Thunderstorm,196
2012-11-25,87,82,77,75,73,36,89,77,19,29.92,29.86,29.80,6,5,4,7,2,,0.00,6,Rain-Thunderstorm,291
2012-11-26,87,81,75,75,73,72,89,77,62,29.92,29.86,29.80,6,5,4,7,2,,0.00,6,,321
2012-11-27,91,82,73,75,73,70,94,79,52,29.89,29.83,29.77,4,4,3,7,2,,0.00,6,,296
2012-11-28,84,80,75,75,73,72,89,83,70,29.89,29.84,29.80,5,4,1,9,3,,0.00,6,Rain-Thunderstorm,187
2012-11-29,87,81,75,75,73,72,94,82,58,29.89,29.82,29.77,5,4,3,5,2,,0.00,6,Rain,34
2012-11-30,87,81,75,75,73,72,89,78,58,29.89,29.83,29.77,5,4,4,5,2,,0.00,6,,204